Regional Weather Roundup
Issued by NWS

Home | Current Version | Previous Version | Text Only | Print | Product List | Glossary On
Versions: 1 2 3 4 5 6 7 8 9 10 11 12 13 14 15 16 17 18 19 20 21 22 23 24 25 26 27 28 29 30 31 32 33 34 35 36 37 38 39 40 41 42 43 44 45 46 47 48 49 50
000
ASUS43 KLMK 281102
RWRKY
KENTUCKY REGIONAL WEATHER ROUNDUP
NATIONAL WEATHER SERVICE LOUISVILLE KY
700 AM EDT WED JUN 28 2017

NOTE "FAIR" INDICATES FEW OR NO CLOUDS BELOW 12,000 FEET
WITH NO SIGNIFICANT WEATHER AND/OR OBSTRUCTIONS TO VISIBILITY.

KYZ001>023-026-027-061>063-070>075-281200-
WESTERN AND SOUTH CENTRAL KENTUCKY

CITY           SKY/WX    TMP DP  RH WIND       PRES   REMARKS
PADUCAH        CLEAR     62  55  77 SE6       30.07R
HENDERSON      CLEAR     57  53  86 CALM      30.11R
OWENSBORO      CLEAR     59  54  83 S3        30.11R
HOPKINSVILLE   CLEAR     58  55  89 CALM      30.11R
BOWLING GREEN  CLEAR     57  56  96 CALM      30.13R
GLASGOW        NOT AVBL
$$

KYZ024-025-028>034-038-045-046-053-281200-
NORTH CENTRAL KENTUCKY

CITY           SKY/WX    TMP DP  RH WIND       PRES   REMARKS
LOUISVILLE/SDF PTCLDY    59  52  77 SE5       30.13R
LOUISVILLE/LOU CLEAR     57  52  83 CALM      30.14R
FORT KNOX      CLEAR     55  53  95 CALM      30.11F
$$

KYZ035>037-039>044-047>052-055>060-089>105-281200-
NORTHEAST KENTUCKY

CITY           SKY/WX    TMP DP  RH WIND       PRES   REMARKS
LEXINGTON      CLEAR     57  49  74 S5        30.15R
COVINGTON      PTCLDY    58  50  75 CALM      30.16R
FRANKFORT      CLEAR     53  49  86 CALM      30.13R
$$

KYZ054-064>069-076>088-106>120-281200-
SOUTHEAST KENTUCKY

CITY           SKY/WX    TMP DP  RH WIND       PRES   REMARKS
JACKSON        CLEAR     57  48  72 SE6       30.15F
LONDON         CLEAR     52  49  89 CALM      30.15F
SOMERSET       CLEAR     50  50 100 CALM      30.15S
MIDDLESBORO    MOCLDY    49  49 100 CALM      30.19F
MONTICELLO     SUNNY     53  51  93 W12       30.16S
$$





USA.gov is the U.S. government's official web portal to all federal, state and local government web resources and services.